Weather History for Springfield, VT

Change the Weather History Date:

Friday, June 21, 2013

  Actual Average Record
Temperature  
Mean Temperature 65 °F 66 °F  
Max Temperature 82 °F 78 °F 94 °F (2012)
Min Temperature 48 °F 54 °F 43 °F (2004)
Cooling Degree Days 0 3  
Month to date cooling degree days 22 35  
Year to date cooling degree days 46 47  
Since 1 June cooling degree days 22 35  
Growing Degree Days 15 (Base 50)    
Moisture  
Dew Point 50 °F    
Average Humidity 64    
Maximum Humidity 100    
Minimum Humidity 28    
Precipitation  
Precipitation 0.00 in 0.12 in 0.36 in (2003)
Month to date precipitation 4.07 2.90  
Year to date precipitation 15.78 19.17  
Sea Level Pressure  
Sea Level Pressure 30.24 in    
Wind  
Wind Speed 2 mph (WSW)    
Max Wind Speed 12 mph    
Max Gust Speed 16 mph    
Visibility 10 miles    
Events      
T = Trace of Precipitation, MM = Missing Value Source: NWS Daily Summary

Daily Weather History Graph

Daily Weather History Graph

Search for Another Location

Airport:

Trip Planner

Search our weather history database for the weather conditions in past years. The results will help you decide how hot, cold, wet, or windy it might be!

Date:

Astronomy

Jun. 21, 2013 Rise Set
Actual Time 5:09 AM EDT 8:34 PM EDT
Civil Twilight 4:34 AM EDT 9:09 PM EDT
Nautical Twilight 3:47 AM EDT 9:56 PM EDT
Astronomical Twilight 2:49 AM EDT 10:54 PM EDT
Moon 6:39 PM EDT (6/21) 3:25 AM EDT (6/21)
Length of Visible Light 16h 35m
Length of Day
15h 24m
Waxing Gibbous, 95% of the Moon is Illuminated
Jun 21
Waxing Gibbous
Jun 23
Full
Jun 30
Last Quarter
Jul 8
New
Jul 15
First Quarter

Hourly Weather History & Observations

Time (EDT) Temp. Dew Point Humidity Pressure Visibility Wind Dir Wind Speed Gust Speed Precip Events Conditions
12:54 AM 52.0 °F 48.9 °F 89% 30.25 in 10.0 mi Calm Calm - N/A   Clear
1:54 AM 51.1 °F 48.9 °F 92% 30.24 in 10.0 mi Calm Calm - N/A   Clear
2:54 AM 50.0 °F 48.0 °F 93% 30.23 in 10.0 mi Calm Calm - N/A   Clear
3:54 AM 48.9 °F 48.0 °F 97% 30.23 in 10.0 mi Calm Calm - N/A   Clear
4:54 AM 48.9 °F 46.9 °F 93% 30.25 in 10.0 mi Calm Calm - N/A   Clear
5:54 AM 48.9 °F 46.9 °F 93% 30.26 in 10.0 mi Calm Calm - N/A   Clear
6:54 AM 52.0 °F 50.0 °F 93% 30.27 in 10.0 mi Calm Calm - N/A   Clear
7:54 AM 57.0 °F 52.0 °F 83% 30.27 in 10.0 mi Calm Calm - N/A   Clear
8:54 AM 63.0 °F 54.0 °F 72% 30.26 in 10.0 mi Calm Calm - N/A   Clear
9:54 AM 70.0 °F 55.0 °F 59% 30.26 in 10.0 mi SW 3.5 mph - N/A   Clear
10:54 AM 73.9 °F 50.0 °F 43% 30.26 in 10.0 mi ESE 4.6 mph - N/A   Clear
11:54 AM 77.0 °F 51.1 °F 40% 30.26 in 10.0 mi East 4.6 mph - N/A   Clear
12:54 PM 79.0 °F 48.9 °F 35% 30.24 in 10.0 mi West 8.1 mph - N/A   Partly Cloudy
1:54 PM 80.1 °F 46.9 °F 31% 30.24 in 10.0 mi SW 6.9 mph - N/A   Partly Cloudy
2:54 PM 82.0 °F 46.9 °F 29% 30.23 in 10.0 mi Variable 4.6 mph - N/A   Clear
3:54 PM 81.0 °F 48.9 °F 33% 30.22 in 10.0 mi WSW 4.6 mph - N/A   Clear
4:54 PM 81.0 °F 48.0 °F 31% 30.22 in 10.0 mi Variable 5.8 mph - N/A   Clear
5:54 PM 82.0 °F 46.9 °F 29% 30.22 in 10.0 mi Variable 4.6 mph - N/A   Clear
6:54 PM 81.0 °F 48.0 °F 31% 30.22 in 10.0 mi NW 3.5 mph - N/A   Clear
7:54 PM 73.0 °F 55.0 °F 53% 30.22 in 10.0 mi Calm Calm - N/A   Clear
8:54 PM 66.0 °F 55.0 °F 68% 30.22 in 10.0 mi Calm Calm - N/A   Clear
9:54 PM 63.0 °F 55.0 °F 75% 30.24 in 10.0 mi Calm Calm - N/A   Clear
10:54 PM 59.0 °F 54.0 °F 83% 30.24 in 10.0 mi Calm Calm - N/A   Clear
11:54 PM 57.0 °F 55.0 °F 93% 30.23 in 10.0 mi Calm Calm - N/A   Clear